N716SC KLAX-KVNY

Flight info

Callsign N716SC
Flight time 0h 14m
Altitude VFR
Route
Aircraft C172/L-DOV/C

Departure

Time 2026-04-22 02:36
Airport Los Angeles International Airport (KLAX)

Arrival

Time 2026-04-22 02:51
Airport Van Nuys Airport (KVNY)
Time Latitude Longitude Altitude Speed Heading
2026-04-22 02:23 33.94122 -118.39360 120 ft 0 kts 301°
2026-04-22 02:27 33.94122 -118.39361 120 ft 0 kts 301°
2026-04-22 02:27 33.94123 -118.39362 118 ft 0 kts 266°
2026-04-22 02:27 33.94123 -118.39363 118 ft 0 kts 257°
2026-04-22 02:27 33.94122 -118.39364 119 ft 0 kts 240°
2026-04-22 02:28 33.94121 -118.39365 119 ft 1 kts 229°
2026-04-22 02:28 33.94115 -118.39369 120 ft 1 kts 192°
2026-04-22 02:28 33.94102 -118.39361 118 ft 4 kts 123°
2026-04-22 02:28 33.94099 -118.39355 119 ft 0 kts 124°
2026-04-22 02:29 33.94095 -118.39348 120 ft 3 kts 123°
2026-04-22 02:29 33.94093 -118.39346 120 ft 1 kts 122°
2026-04-22 02:29 33.94079 -118.39325 120 ft 4 kts 161°
2026-04-22 02:29 33.94041 -118.39321 120 ft 2 kts 159°
2026-04-22 02:30 33.94033 -118.39294 120 ft 7 kts 84°
2026-04-22 02:30 33.94016 -118.39230 119 ft 9 kts 146°
2026-04-22 02:30 33.93966 -118.39172 120 ft 11 kts 93°
2026-04-22 02:30 33.93975 -118.39064 120 ft 16 kts 85°
2026-04-22 02:31 33.93988 -118.38922 120 ft 19 kts 80°
2026-04-22 02:31 33.94005 -118.38761 120 ft 19 kts 82°
2026-04-22 02:31 33.94020 -118.38619 120 ft 16 kts 83°
2026-04-22 02:31 33.94035 -118.38484 120 ft 17 kts 86°
2026-04-22 02:32 33.94048 -118.38345 120 ft 16 kts 82°
2026-04-22 02:32 33.94062 -118.38205 120 ft 16 kts 82°
2026-04-22 02:32 33.94071 -118.38113 119 ft 8 kts 83°
2026-04-22 02:32 33.94078 -118.38050 120 ft 7 kts 87°
2026-04-22 02:33 33.94075 -118.38028 120 ft 0 kts 110°
2026-04-22 02:35 33.94067 -118.38014 118 ft 9 kts 134°
2026-04-22 02:35 33.93983 -118.38046 120 ft 21 kts 260°
2026-04-22 02:36 33.93949 -118.38363 120 ft 58 kts 263°
2026-04-22 02:36 33.93885 -118.38961 180 ft 82 kts 262°
2026-04-22 02:36 33.93795 -118.39609 476 ft 73 kts 258°
2026-04-22 02:36 33.93733 -118.40201 731 ft 70 kts 265°
2026-04-22 02:37 33.93690 -118.40793 954 ft 71 kts 261°
2026-04-22 02:37 33.93557 -118.41360 1218 ft 67 kts 257°
2026-04-22 02:37 33.93434 -118.41916 1431 ft 69 kts 264°
2026-04-22 02:37 33.93409 -118.42515 1632 ft 74 kts 268°
2026-04-22 02:38 33.93335 -118.43136 1865 ft 73 kts 262°
2026-04-22 02:38 33.93207 -118.43744 2058 ft 77 kts 263°
2026-04-22 02:38 33.93328 -118.44346 2322 ft 77 kts 297°
2026-04-22 02:38 33.93684 -118.44851 2536 ft 81 kts 312°
2026-04-22 02:39 33.94110 -118.45330 2699 ft 87 kts 314°
2026-04-22 02:39 33.94567 -118.45812 2856 ft 91 kts 317°
2026-04-22 02:39 33.95141 -118.46248 2938 ft 102 kts 328°
2026-04-22 02:39 33.95754 -118.46495 3252 ft 89 kts 340°
2026-04-22 02:40 33.96362 -118.46622 3486 ft 87 kts 345°
2026-04-22 02:40 33.96995 -118.46717 3512 ft 104 kts 346°
2026-04-22 02:40 33.97754 -118.46884 3503 ft 109 kts 345°
2026-04-22 02:40 33.98516 -118.47014 3507 ft 110 kts 347°
2026-04-22 02:41 33.99280 -118.47113 3509 ft 110 kts 347°
2026-04-22 02:41 33.99978 -118.47429 3477 ft 105 kts 324°
2026-04-22 02:41 34.00626 -118.47833 3483 ft 109 kts 341°
2026-04-22 02:41 34.01381 -118.47985 3479 ft 111 kts 346°
2026-04-22 02:42 34.02152 -118.48118 3482 ft 112 kts 346°
2026-04-22 02:42 34.02913 -118.48243 3483 ft 112 kts 346°
2026-04-22 02:42 34.03686 -118.48352 3482 ft 111 kts 347°
2026-04-22 02:42 34.04450 -118.48473 3482 ft 111 kts 346°
2026-04-22 02:43 34.05217 -118.48593 3495 ft 110 kts 346°
2026-04-22 02:43 34.05976 -118.48711 3503 ft 110 kts 346°
2026-04-22 02:43 34.06740 -118.48838 3499 ft 111 kts 346°
2026-04-22 02:43 34.07510 -118.48957 3506 ft 113 kts 346°
2026-04-22 02:44 34.08306 -118.49053 3513 ft 117 kts 355°
2026-04-22 02:44 34.09122 -118.48984 3506 ft 117 kts 357°
2026-04-22 02:44 34.09935 -118.48790 3511 ft 123 kts 13°
2026-04-22 02:44 34.10733 -118.48475 3503 ft 120 kts 11°
2026-04-22 02:45 34.11516 -118.48176 3459 ft 118 kts 13°
2026-04-22 02:45 34.12317 -118.47865 3292 ft 121 kts 12°
2026-04-22 02:45 34.13143 -118.47629 3113 ft 121 kts
2026-04-22 02:45 34.13935 -118.47412 2947 ft 114 kts
2026-04-22 02:46 34.14717 -118.47303 2731 ft 114 kts
2026-04-22 02:46 34.15505 -118.47205 2555 ft 112 kts
2026-04-22 02:46 34.16263 -118.47103 2500 ft 109 kts
2026-04-22 02:46 34.17027 -118.47038 2488 ft 108 kts 358°
2026-04-22 02:47 34.17795 -118.46978 2463 ft 113 kts 358°
2026-04-22 02:47 34.18603 -118.46924 2414 ft 118 kts 358°
2026-04-22 02:47 34.19398 -118.46845 2430 ft 112 kts 359°
2026-04-22 02:47 34.20176 -118.46802 2414 ft 112 kts 360°
2026-04-22 02:48 34.20924 -118.46694 2304 ft 105 kts 359°
2026-04-22 02:48 34.21633 -118.46628 2174 ft 102 kts 360°
2026-04-22 02:48 34.22327 -118.46557 2167 ft 100 kts 356°
2026-04-22 02:48 34.22974 -118.46614 2188 ft 91 kts 337°
2026-04-22 02:49 34.23422 -118.47006 2161 ft 77 kts 296°
2026-04-22 02:49 34.23543 -118.47622 2060 ft 75 kts 271°
2026-04-22 02:49 34.23555 -118.48237 1850 ft 71 kts 269°
2026-04-22 02:49 34.23434 -118.48769 1627 ft 67 kts 230°
2026-04-22 02:50 34.23038 -118.49086 1309 ft 72 kts 204°
2026-04-22 02:50 34.22559 -118.49169 1088 ft 67 kts 180°
2026-04-22 02:50 34.22125 -118.49140 931 ft 61 kts 173°
2026-04-22 02:50 34.21685 -118.49101 832 ft 63 kts 176°
2026-04-22 02:51 34.21317 -118.49066 792 ft 42 kts 179°
2026-04-22 02:51 34.20975 -118.49023 833 ft 60 kts 182°
2026-04-22 02:51 34.20528 -118.49002 943 ft 74 kts 177°
2026-04-22 02:51 34.20010 -118.48925 1151 ft 76 kts 177°
2026-04-22 02:52 34.19482 -118.48889 1327 ft 74 kts 181°
2026-04-22 02:52 34.19119 -118.49210 1574 ft 67 kts 258°
2026-04-22 02:52 34.19254 -118.49838 1563 ft 92 kts 313°
2026-04-22 02:52 34.19902 -118.50103 1590 ft 106 kts 357°
2026-04-22 02:53 34.20680 -118.50104 1598 ft 116 kts 354°
2026-04-22 02:53 34.21471 -118.50257 1635 ft 114 kts 344°
2026-04-22 02:53 34.22202 -118.50398 1605 ft 101 kts 352°
2026-04-22 02:53 34.22814 -118.50171 1515 ft 89 kts 57°
2026-04-22 02:54 34.22824 -118.49511 1347 ft 73 kts 137°
2026-04-22 02:54 34.22404 -118.49206 1085 ft 69 kts 173°
2026-04-22 02:54 34.21952 -118.49130 913 ft 61 kts 173°
2026-04-22 02:54 34.21556 -118.49089 805 ft 54 kts 177°
2026-04-22 02:55 34.21240 -118.49063 789 ft 37 kts 179°
2026-04-22 02:55 34.21027 -118.49076 788 ft 19 kts 232°